This demonstration page uses our WeatherBlox Daily Observations layout. Learn more.

Left ArrowRight Arrow

Hourly Observations for January 15, 2017

Temp ( °F °C ) Dew Point ( °F °C ) Humidity (%) Winds ( mph kmh ) Pressure ( in mb ) Visibility ( mi km ) Precip ( " mm )
12:12 am 00:12 Cloudy with Light Rain 36 2 34 1 93 93 ESE 6 9 30.39 1029 5 8 0.00 0.00
12:21 am 00:21 Cloudy with Rain 35 1.7 33 0.6 93 93 ESE 7 11 30.42 1030 4 6 0.05 1.27
12:34 am 00:34 Cloudy with Light Rain 36 2 34 1 93 93 E 6 9 30.39 1029 6 10 0.00 0.00
12:52 am 00:52 Cloudy with Light Rain 35 1.7 34 1.1 96 96 Calm 30.38 1029 8 13 0.07 1.78
1:52 am 01:52 Cloudy with Heavy Rain 34 1.1 33 0.6 97 97 NE 5 7 30.37 1028 3 4 0.07 1.78
2:11 am 02:11 Cloudy with Light Rain 35 1.7 33 0.6 93 93 NNE 6 9 30.36 1028 4 6 0.06 1.52
2:52 am 02:52 Cloudy with Light Rain 34 1.1 33 0.6 97 97 NE 7 11 30.36 1028 5 8 0.08 2.03
3:34 am 03:34 Cloudy with Light Rain 36 2 34 1 93 93 ESE 10 17 30.33 1027 10 16 0.00 0.00
3:52 am 03:52 Cloudy with Light Rain 35 1.7 34 1.1 96 96 E 9 15 30.33 1027 10 16 0.01 0.25
4:06 am 04:06 Cloudy with Light Rain 36 2 34 1 93 93 E 7 11 30.33 1027 10 16 0.00 0.00
4:52 am 04:52 Cloudy with Rain 36 2.2 35 1.7 97 97 ESE 6 9 30.32 1027 5 8 0.20 5.08
5:52 am 05:52 Cloudy with Light Rain 37 2.8 35 1.7 93 93 E 7 11 30.31 1026 10 16 0.06 1.52
6:27 am 06:27 Cloudy with Heavy Rain 37 2.8 36 2.2 96 96 E 3 6 30.33 1027 3 4 0.04 1.02
6:34 am 06:34 Cloudy with Rain 37 3 36 2 93 93 Calm 30.33 1027 4 6 0.00 0.00
6:52 am 06:52 Cloudy with Light Rain 37 2.8 36 2.2 96 96 ENE 3 6 30.32 1027 4 6 0.08 2.03
7:45 am 07:45 Cloudy with Light Rain 37 2.8 35 1.7 93 93 ENE 5 7 30.33 1027 2 3 0.02 0.51
7:52 am 07:52 Cloudy with Light Rain 37 2.8 35 1.7 93 93 ENE 5 7 30.31 1026 2 3 0.02 0.51
8:00 am 08:00 Cloudy with Light Rain 37 3 36 2 93 93 ENE 6 9 30.30 1026 2 3 0.00 0.00
8:07 am 08:07 Cloudy with Mist and Fog 37 2.8 35 1.7 93 93 NE 5 7 30.33 1027 3 4 0.01 0.25
8:14 am 08:14 Cloudy with Mist and Fog 37 3 36 2 93 93 ENE 5 7 30.33 1027 3 5 0.00 0.00
8:21 am 08:21 Cloudy with Mist and Fog 37 2.8 35 1.7 93 93 ENE 3 6 30.33 1027 2 3 0.02 0.51
8:33 am 08:33 Cloudy with Mist and Fog 36 2.2 35 1.7 97 97 ENE 5 7 30.30 1026 3 5 0.04 1.02
8:52 am 08:52 Cloudy with Mist and Fog 37 2.8 36 2.2 96 96 E 5 7 30.31 1026 2 3 0.06 1.52
9:47 am 09:47 Cloudy with Mist and Fog 39 4 37 3 93 93 SE 8 13 30.33 1027 3 4 0.03 0.76
9:52 am 09:52 Cloudy with Mist and Fog 39 3.9 38 3.3 96 96 SE 9 15 30.31 1027 3 5 0.03 0.76
9:55 am 09:55 Cloudy with Mist and Fog 39 3.9 37 2.8 93 93 SE 10 17 30.33 1027 3 4 0.00 0.00
10:15 am 10:15 Cloudy with Mist and Fog 39 3.9 37 2.8 93 93 SE 10 17 30.30 1026 5 8 0.02 0.51
10:52 am 10:52 Cloudy with Mist and Fog 39 3.9 37 2.8 93 93 ESE 8 13 30.29 1026 5 8 0.03 0.76
11:52 am 11:52 Cloudy with Mist and Fog 39 3.9 37 2.8 93 93 SSE 12 19 30.26 1025 5 8 0.01 0.25
12:05 pm 12:05 Cloudy with Mist and Fog 39 3.9 38 3.3 96 96 SE 9 15 30.30 1026 2 3 0.00 0.00
12:27 pm 12:27 Cloudy with Fog 39 4 39 4 100 100 SSE 9 15 30.27 1025 1 1 0.00 0.00
12:52 pm 12:52 Mostly Cloudy with Fog 40 4.4 39 3.9 97 97 SSE 10 17 30.22 1023 1 1 0.00 0.00
1:52 pm 13:52 Mostly Cloudy with Fog 41 5 41 5 100 100 SE 9 15 30.19 1022 1 1 0.00 0.00
2:38 pm 14:38 Cloudy with Mist and Fog 43 6 43 6 100 100 SE 7 11 30.18 1022 1 2 0.00 0.00
2:52 pm 14:52 Cloudy with Mist and Fog 43 6.1 42 5.6 97 97 SSE 7 11 30.18 1022 2 2 0.00 0.00
3:07 pm 15:07 Cloudy with Mist and Fog 43 6.1 42 5.6 97 97 SE 8 13 30.18 1022 2 3 0.00 0.00
3:52 pm 15:52 Cloudy with Mist and Fog 44 6.7 43 6.1 96 96 SE 9 15 30.16 1021 2 3 0.00 0.00
4:04 pm 16:04 Cloudy with Mist and Fog 45 7 43 6 93 93 SE 9 15 30.18 1022 3 5 0.00 0.00
4:18 pm 16:18 Cloudy with Mist and Fog 45 7 43 6 93 93 SE 8 13 30.18 1022 2 3 0.00 0.00
4:33 pm 16:33 Cloudy with Fog 44 6.7 43 6.1 96 96 SE 7 11 30.18 1022 0 0 0.00 0.00
4:52 pm 16:52 Cloudy with Fog 44 6.7 43 6.1 96 96 SE 7 11 30.15 1021 0 0 0.00 0.00
4:59 pm 16:59 Cloudy with Mist and Fog 44 6.7 43 6.1 96 96 SE 8 13 30.15 1021 1 2 0.00 0.00
5:07 pm 17:07 Mostly Cloudy with Mist and Fog 44 6.7 43 6.1 96 96 ESE 9 15 30.15 1021 1 1 0.00 0.00
5:24 pm 17:24 Cloudy with Mist and Fog 45 7 43 6 93 93 SE 7 11 30.18 1022 1 2 0.00 0.00
5:52 pm 17:52 Cloudy with Mist and Fog 44 6.7 43 6.1 96 96 SE 8 13 30.15 1021 2 3 0.00 0.00
6:52 pm 18:52 Cloudy with Mist and Fog 44 6.7 43 6.1 96 96 SE 9 15 30.15 1021 2 2 0.00 0.00
7:52 pm 19:52 Cloudy with Mist and Fog 44 6.7 43 6.1 96 96 SE 8 13 30.15 1021 2 3 0.00 0.00
8:01 pm 20:01 Cloudy with Mist and Fog 44 6.7 43 6.1 96 96 SE 9 15 30.15 1021 6 10 0.00 0.00
8:52 pm 20:52 Cloudy 44 6.7 43 6.1 96 96 ESE 9 15 30.13 1020 7 11 0.00 0.00
9:33 pm 21:33 Cloudy 44 6.7 42 5.6 93 93 ESE 10 17 30.12 1020 10 16 0.00 0.00
9:45 pm 21:45 Cloudy 44 6.7 42 5.6 93 93 SE 9 15 30.12 1020 10 16 0.00 0.00
9:52 pm 21:52 Cloudy 44 6.7 42 5.6 93 93 SE 8 13 30.11 1020 10 16 0.00 0.00
10:52 pm 22:52 Cloudy 44 6.7 42 5.6 93 93 SE 13 20 30.09 1019 8 13 0.00 0.00
11:52 pm 23:52 Cloudy 44 6.7 43 6.1 96 96 SSE 16 26 30.08 1019 8 13 0.00 0.00

Powered by AerisWeather